This demonstration page uses our WeatherBlox Daily Observations layout. Learn more.

Hourly Observations for June 8, 2017

Temp ( °F °C ) Dew Point ( °F °C ) Humidity (%) Winds ( mph kmh ) Pressure ( in mb ) Visibility ( mi km ) Precip ( " mm )
12:15 am 00:15 Clear 55 13 55 13 100 100 Calm 30.06 1018 10 16.09344 0 0
12:35 am 00:35 Clear 55 13 55 13 100 100 Calm 30.06 1018 10 16.09344 0 0
12:55 am 00:55 Clear 54 12 54 12 100 100 Calm 30.06 1018 10 16.09344 0 0
1:15 am 01:15 Clear 54 12 54 12 100 100 Calm 30.06 1018 10 16.09344 0 0
1:35 am 01:35 Clear 54 12 54 12 100 100 Calm 30.06 1018 10 16.09344 0 0
1:55 am 01:55 Clear 54 12 54 12 100 100 Calm 30.06 1018 10 16.09344 0 0
2:15 am 02:15 Clear 52 11 52 11 100 100 Calm 30.06 1018 10 16.09344 0 0
2:35 am 02:35 Clear 52 11 52 11 100 100 Calm 30.06 1018 10 16.09344 0 0
2:55 am 02:55 Clear 52 11 52 11 100 100 Calm 30.03 1017 10 16.09344 0 0
3:15 am 03:15 Clear 52 11 52 11 100 100 Calm 30.03 1017 10 16.09344 0 0
3:35 am 03:35 Clear 52 11 52 11 100 100 Calm 30.03 1017 10 16.09344 0 0
3:55 am 03:55 Clear 52 11 52 11 100 100 Calm 30.03 1017 10 16.09344 0 0
4:15 am 04:15 Clear 52 11 52 11 100 100 Calm 30.03 1017 10 16.09344 0 0
4:35 am 04:35 Clear 50 10 50 10 100 100 Calm 30.03 1017 10 16.09344 0 0
4:55 am 04:55 Clear 50 10 50 10 100 100 Calm 30.03 1017 10 16.09344 0 0
5:15 am 05:15 Clear 50 10 50 10 100 100 Calm 30.03 1017 10 16.09344 0 0
5:35 am 05:35 Clear 52 11 52 11 100 100 Calm 30.03 1017 10 16.09344 0 0
5:55 am 05:55 Sunny 52 11 52 11 100 100 Calm 30.03 1017 7 11.265408 0 0
6:15 am 06:15 Sunny 52 11 52 11 100 100 N 3 6 30.03 1017 7 11.265408 0 0
6:35 am 06:35 Sunny 54 12 54 12 100 100 NNE 5 7 30.03 1017 7 11.265408 0 0
6:55 am 06:55 Sunny 54 12 54 12 100 100 NNE 5 7 30.03 1017 10 16.09344 0 0
7:15 am 07:15 Sunny 55 13 55 13 100 100 N 3 6 30.03 1017 10 16.09344 0 0
7:35 am 07:35 Sunny 57 14 55 13 94 94 Calm 30.03 1017 10 16.09344 0 0
7:55 am 07:55 Sunny 59 15 55 13 88 88 N 3 6 30.03 1017 10 16.09344 0 0
8:15 am 08:15 Sunny 61 16 55 13 83 83 NNE 5 7 30.03 1017 10 16.09344 0 0
8:35 am 08:35 Sunny 63 17 55 13 77 77 NNE 9 15 30.03 1017 10 16.09344 0 0
8:55 am 08:55 Sunny 63 17 55 13 77 77 NNE 6 9 30.03 1017 10 16.09344 0 0
9:15 am 09:15 Sunny 64 18 55 13 73 73 NE 7 11 30.03 1017 10 16.09344 0 0
9:35 am 09:35 Sunny 64 18 54 12 68 68 NNE 6 9 30.03 1017 10 16.09344 0 0
9:55 am 09:55 Sunny 68 20 55 13 64 64 NE 6 9 30.03 1017 10 16.09344 0 0
10:15 am 10:15 Sunny 68 20 54 12 60 60 NE 5 7 30.03 1017 10 16.09344 0 0
10:35 am 10:35 Sunny 68 20 54 12 60 60 NNE 6 9 30.03 1017 10 16.09344 0 0
10:55 am 10:55 Partly Cloudy 70 21 54 12 57 57 ENE 5 7 30.03 1017 10 16.09344 0 0
11:15 am 11:15 Partly Cloudy 70 21 50 10 50 50 ENE 3 6 30 1016 10 16.09344 0 0
11:35 am 11:35 Partly Cloudy 70 21 52 11 53 53 SSE 3 6 30 1016 10 16.09344 0 0
11:55 am 11:55 Mostly Cloudy 70 21 52 11 53 53 NNE 5 7 30 1016 10 16.09344 0 0
12:15 pm 12:15 Mostly Cloudy 70 21 50 10 50 50 Calm 30 1016 10 16.09344 0 0
12:35 pm 12:35 Mostly Cloudy 70 21 50 10 50 50 NE 6 9 29.97 1015 10 16.09344 0 0
12:55 pm 12:55 Partly Cloudy 72 22 50 10 47 47 ESE 6 9 29.97 1015 10 16.09344 0 0
1:15 pm 13:15 Partly Cloudy 72 22 48 9 44 44 SE 5 7 29.97 1015 10 16.09344 0 0
1:35 pm 13:35 Sunny 73 23 50 10 44 44 NE 8 13 29.97 1015 10 16.09344 0 0
1:55 pm 13:55 Partly Cloudy 73 23 50 10 44 44 N 3 6 29.94 1014 10 16.09344 0 0
2:15 pm 14:15 Partly Cloudy 73 23 50 10 44 44 Calm 29.94 1014 10 16.09344 0 0
2:35 pm 14:35 Mostly Cloudy 72 22 48 9 44 44 NE 3 6 29.94 1014 10 16.09344 0 0
2:55 pm 14:55 Mostly Cloudy 73 23 50 10 44 44 NNE 7 11 29.94 1014 10 16.09344 0 0
3:15 pm 15:15 Mostly Cloudy 73 23 50 10 44 44 E 8 13 29.91 1013 10 16.09344 0 0
3:35 pm 15:35 Cloudy 73 23 50 10 44 44 E 3 6 29.91 1013 10 16.09344 0 0
3:55 pm 15:55 Mostly Cloudy 73 23 48 9 41 41 E 3 6 29.91 1013 10 16.09344 0 0
4:15 pm 16:15 Partly Cloudy 73 23 50 10 44 44 Calm 29.91 1013 10 16.09344 0 0
4:35 pm 16:35 Mostly Cloudy 73 23 48 9 41 41 E 3 6 29.88 1012 10 16.09344 0 0
4:55 pm 16:55 Cloudy 73 23 48 9 41 41 ENE 7 11 29.88 1012 10 16.09344 0 0
5:15 pm 17:15 Partly Cloudy 73 23 46 8 38 38 Calm 29.88 1012 10 16.09344 0 0
5:35 pm 17:35 Partly Cloudy 75 24 46 8 36 36 ENE 8 13 29.88 1012 10 16.09344 0 0
5:55 pm 17:55 Partly Cloudy 73 23 48 9 41 41 NE 5 7 29.85 1011 10 16.09344 0 0
6:15 pm 18:15 Partly Cloudy 73 23 50 10 44 44 Calm 29.85 1011 10 16.09344 0 0
6:35 pm 18:35 Partly Cloudy 73 23 50 10 44 44 E 6 9 29.85 1011 10 16.09344 0 0
6:55 pm 18:55 Sunny 73 23 50 10 44 44 NE 7 11 29.85 1011 10 16.09344 0 0
7:15 pm 19:15 Sunny 73 23 50 10 44 44 NNE 6 9 29.85 1011 10 16.09344 0 0
7:35 pm 19:35 Sunny 73 23 50 10 44 44 NNE 3 6 29.85 1011 10 16.09344 0 0
7:55 pm 19:55 Sunny 72 22 50 10 47 47 Calm 29.85 1011 10 16.09344 0 0
8:15 pm 20:15 Sunny 70 21 50 10 50 50 Calm 29.85 1011 10 16.09344 0 0
8:35 pm 20:35 Clear 68 20 54 12 60 60 Calm 29.83 1010 10 16.09344 0 0
8:55 pm 20:55 Clear 64 18 54 12 68 68 Calm 29.85 1011 10 16.09344 0 0
9:15 pm 21:15 Clear 64 18 54 12 68 68 SSE 3 6 29.85 1011 10 16.09344 0 0
9:35 pm 21:35 Clear 63 17 54 12 73 73 Calm 29.85 1011 10 16.09344 0 0
9:55 pm 21:55 Clear 61 16 55 13 83 83 SSW 3 6 29.85 1011 10 16.09344 0 0
10:15 pm 22:15 Clear 61 16 55 13 83 83 Calm 29.85 1011 10 16.09344 0 0
10:35 pm 22:35 Clear 61 16 55 13 83 83 Calm 29.85 1011 10 16.09344 0 0
10:55 pm 22:55 Clear 59 15 54 12 82 82 Calm 29.85 1011 10 16.09344 0 0
11:15 pm 23:15 Clear 61 16 54 12 77 77 SSW 5 7 29.85 1011 10 16.09344 0 0
11:35 pm 23:35 Clear 59 15 54 12 82 82 WSW 3 6 29.85 1011 10 16.09344 0 0
11:55 pm 23:55 Clear 59 15 55 13 88 88 Calm 29.85 1011 10 16.09344 0 0

Powered by AerisWeather